Location: Caltech
(34.1382°N, 118.1253°W)
Time: 12:50:09
(UTC-07:00)

Cosmos 1939 Rocket - Visible Passes

Search period start: 23 June 2018 00:00
Search period end: 03 July 2018 00:00
Orbit: 532 x 586 km, 97.5° (Epoch: 23 June)

Date Brightness Start Highest point End Pass type
(mag) Time Alt. Az. Time Alt. Az. Time Alt. Az.
23 Jun 5.3 21:30:55 10° SW 21:33:59 20° W 21:37:02 10° NW visible
24 Jun 5.2 21:29:26 10° SW 21:32:33 21° W 21:35:39 10° NW visible
25 Jun 5.2 21:27:56 10° SSW 21:31:07 22° W 21:34:16 10° NW visible
26 Jun 5.1 21:26:27 10° SSW 21:29:40 23° W 21:32:53 10° NW visible
27 Jun 5.0 21:24:57 10° SSW 21:28:14 23° W 21:31:29 10° NW visible
28 Jun 5.0 21:23:29 10° SSW 21:26:47 24° W 21:30:05 10° NW visible
29 Jun 4.9 21:21:59 10° SSW 21:25:21 25° W 21:28:41 10° NW visible
30 Jun 4.9 21:20:31 10° SSW 21:23:54 26° W 21:27:16 10° NW visible
01 Jul 4.8 21:19:02 10° SSW 21:22:27 27° W 21:25:52 10° NW visible
02 Jul 4.7 21:17:33 10° SSW 21:21:01 28° W 21:24:26 10° NW visible
